Regional Weather Roundup
Issued by NWS

Home | Current Version | Previous Version | Text Only | Print | Product List | Glossary Off
Versions: 1 2 3 4 5 6 7 8 9 10 11 12 13 14 15 16 17 18 19 20 21 22 23 24 25 26 27 28 29 30 31 32 33 34 35 36 37 38 39 40 41 42 43 44 45 46 47 48 49 50

000
ASUS43 KOAX 041402
RWRNE

WEATHER ROUNDUP FOR NEBRASKA
NATIONAL WEATHER SERVICE OMAHA NE
900 AM CDT MON MAY 04 2015

NOTES: SATELLITE DATA IS BEING USED TO AUGMENT CLOUD COVER ABOVE
       12000 FEET.
       "FAIR" INDICATES FEW OR NO CLOUDS BELOW 12,000 FEET WITH NO
       SIGNIFICANT WEATHER AND/OR OBSTRUCTIONS TO VISIBILITY.

  * THESE STATIONS DO NOT REPORT WEATHER SUCH AS RAIN...SNOW OR FOG.

NEZ001>004-019>022-054>056-041500-
NEBRASKA PANHANDLE

CITY           SKY/WX    TMP DP  RH WIND       PRES   REMARKS
SCOTTSBLUFF    LGT RAIN  48  40  73 E10       30.15R
ALLIANCE       CLOUDY    49  39  68 E7        30.14S
CHADRON        LGT RAIN  47  42  83 NE8       30.18R
KIMBALL        DRIZZLE   47  41  81 E6        30.13S
SIDNEY         CLOUDY    50  35  56 E12       30.14R
$$

NEZ057>060-069>072-079>082-041500-
SOUTHWEST NEBRASKA

CITY           SKY/WX    TMP DP  RH WIND       PRES   REMARKS
NORTH PLATTE   CLOUDY    54  31  41 E13       30.12R
IMPERIAL       CLOUDY    52  37  56 N7        30.12R
MCCOOK         CLOUDY    58  39  49 NE16      30.07S
$$

NEZ005>010-023>029-035>040-094-041500-
NORTH CENTRAL NEBRASKA

CITY           SKY/WX    TMP DP  RH WIND       PRES   REMARKS
VALENTINE      PTSUNNY   54  32  43 NE12      30.17R
AINSWORTH      CLOUDY    55  28  35 E13       30.16R
BROKEN BOW     CLOUDY    57  30  35 NE17G25   30.10R
ORD            CLOUDY    57  29  34 NE13G21   30.09R
$$

NEZ041-046>049-061>064-073>077-083>087-041500-
SOUTH CENTRAL NEBRASKA

CITY           SKY/WX    TMP DP  RH WIND       PRES   REMARKS
GRAND ISLAND   CLOUDY    58  35  42 NE24G32   30.04F
AURORA         CLOUDY    55  43  64 NE22      30.05F
HASTINGS       PTSUNNY   57  42  57 NE20G32   30.02R
KEARNEY *      CLOUDY    57  36  44 NE18      30.06R
$$

NEZ011>018-030>034-042>045-041500-
NORTHEAST NEBRASKA

CITY           SKY/WX    TMP DP  RH WIND       PRES   REMARKS
NORFOLK        CLOUDY    59  32  36 NE15G23   30.10R
ALBION         CLOUDY    58  28  32 NE14G22   30.11R
BLAIR          LGT RAIN  56  47  72 N24       30.00F
COLUMBUS *     CLOUDY    55  36  47 NE6       30.13R
FREMONT        DRIZZLE   57  43  57 N5        30.06R
TEKAMAH        CLOUDY    60  41  49 NE10      30.08S
$$

NEZ050>053-065>068-078-088>093-041500-
SOUTHEAST NEBRASKA

CITY           SKY/WX    TMP DP  RH WIND       PRES   REMARKS
LINCOLN        LGT RAIN  59  50  72 NE8       30.07R
OMAHA EPPLEY   LGT RAIN  59  51  75 N18       30.04S
BEATRICE       PTSUNNY   59  55  87 NE10G20   30.03R
FALLS CITY     CLOUDY    64  58  80 E8        30.01S
NEBRASKA CITY  CLOUDY    58  56  91 NE10      30.03S
PLATTSMOUTH    CLOUDY    59  52  79 N7        30.06R
$$

NEZ044-045-051>053-067-041500-
OMAHA AREA

CITY           SKY/WX    TMP DP  RH WIND       PRES   REMARKS
OMAHA EPPLEY   LGT RAIN  59  51  75 N18       30.04S
BLAIR          LGT RAIN  56  47  72 N24       30.00F
FREMONT        DRIZZLE   57  43  57 N5        30.06R
OFFUTT AFB     CLOUDY    60  50  71 SE5       30.06R
PLATTSMOUTH    CLOUDY    59  52  79 N7        30.06R
WAHOO          FAIR      58  45  62 NE5       30.10R
$$



USA.gov is the U.S. government's official web portal to all federal, state and local government web resources and services.